TNU106 WAHS-WADD

Flight info

Callsign TNU106
Flight time 0h 56m
Altitude 37000
Route BA T3 MOVMO
Aircraft A321/M-SDE3FGHIRWY/LB1

Departure

Time 2026-04-20 13:35
Airport Jenderal Ahmad Yani Airport (WAHS)

Arrival

Time 2026-04-20 14:31
Airport Denpasar I Gusti Ngurah Rai International Airport (WADD)
Time Latitude Longitude Altitude Speed Heading
2026-04-20 13:11 -6.96692 110.37419 19 ft 0 kts 41°
2026-04-20 13:24 -6.96697 110.37415 21 ft 3 kts 38°
2026-04-20 13:24 -6.96712 110.37403 21 ft 3 kts 40°
2026-04-20 13:24 -6.96723 110.37394 22 ft 3 kts 41°
2026-04-20 13:24 -6.96735 110.37383 21 ft 1 kts 59°
2026-04-20 13:25 -6.96739 110.37375 21 ft 1 kts 93°
2026-04-20 13:25 -6.96738 110.37367 21 ft 1 kts 115°
2026-04-20 13:25 -6.96734 110.37359 20 ft 1 kts 123°
2026-04-20 13:25 -6.96730 110.37352 22 ft 1 kts 127°
2026-04-20 13:26 -6.96728 110.37350 22 ft 0 kts 128°
2026-04-20 13:28 -6.96737 110.37360 19 ft 6 kts 129°
2026-04-20 13:29 -6.96768 110.37398 20 ft 7 kts 130°
2026-04-20 13:29 -6.96798 110.37434 19 ft 7 kts 130°
2026-04-20 13:29 -6.96833 110.37476 19 ft 8 kts 130°
2026-04-20 13:29 -6.96867 110.37516 19 ft 7 kts 130°
2026-04-20 13:30 -6.96898 110.37553 19 ft 7 kts 130°
2026-04-20 13:30 -6.96930 110.37555 18 ft 5 kts 202°
2026-04-20 13:30 -6.96967 110.37527 18 ft 8 kts 218°
2026-04-20 13:30 -6.97013 110.37489 16 ft 10 kts 220°
2026-04-20 13:31 -6.97084 110.37430 7 ft 15 kts 214°
2026-04-20 13:31 -6.97184 110.37469 4 ft 19 kts 131°
2026-04-20 13:31 -6.97268 110.37568 5 ft 19 kts 130°
2026-04-20 13:31 -6.97359 110.37676 5 ft 21 kts 130°
2026-04-20 13:32 -6.97456 110.37791 7 ft 21 kts 130°
2026-04-20 13:32 -6.97550 110.37903 7 ft 22 kts 130°
2026-04-20 13:32 -6.97640 110.38009 6 ft 14 kts 129°
2026-04-20 13:32 -6.97676 110.38090 6 ft 8 kts 115°
2026-04-20 13:33 -6.97698 110.38106 6 ft 2 kts 203°
2026-04-20 13:33 -6.97706 110.38094 6 ft 2 kts 259°
2026-04-20 13:33 -6.97689 110.38065 6 ft 6 kts 309°
2026-04-20 13:33 -6.97688 110.38063 6 ft 0 kts 309°
2026-04-20 13:34 -6.97679 110.38053 6 ft 9 kts 309°
2026-04-20 13:34 -6.97497 110.37838 7 ft 78 kts 310°
2026-04-20 13:34 -6.97000 110.37250 5 ft 139 kts 310°
2026-04-20 13:34 -6.96275 110.36391 122 ft 174 kts 310°
2026-04-20 13:35 -6.95506 110.35465 746 ft 175 kts 309°
2026-04-20 13:35 -6.94718 110.34494 1268 ft 183 kts 309°
2026-04-20 13:35 -6.93876 110.33454 1508 ft 205 kts 309°
2026-04-20 13:35 -6.92768 110.32405 1705 ft 230 kts 327°
2026-04-20 13:36 -6.91213 110.31754 2043 ft 255 kts 349°
2026-04-20 13:36 -6.89406 110.31737 2678 ft 266 kts 12°
2026-04-20 13:36 -6.87688 110.32427 3451 ft 269 kts 35°
2026-04-20 13:36 -6.86359 110.33739 4259 ft 270 kts 58°
2026-04-20 13:37 -6.85643 110.35467 5062 ft 269 kts 81°
2026-04-20 13:37 -6.85647 110.37340 5840 ft 270 kts 103°
2026-04-20 13:37 -6.86253 110.39140 6591 ft 273 kts 111°
2026-04-20 13:37 -6.86929 110.40931 7301 ft 276 kts 111°
2026-04-20 13:38 -6.87612 110.42749 7999 ft 279 kts 110°
2026-04-20 13:38 -6.88066 110.43964 8449 ft 282 kts 110°
2026-04-20 13:38 -6.88984 110.46427 9365 ft 286 kts 110°
2026-04-20 13:38 -6.89686 110.48315 10002 ft 290 kts 110°
2026-04-20 13:39 -6.90242 110.50294 10341 ft 304 kts 96°
2026-04-20 13:39 -6.90429 110.52484 10472 ft 324 kts 94°
2026-04-20 13:39 -6.90614 110.54780 10862 ft 333 kts 94°
2026-04-20 13:39 -6.90802 110.57117 11416 ft 337 kts 94°
2026-04-20 13:40 -6.91060 110.59473 11984 ft 340 kts 101°
2026-04-20 13:40 -6.91592 110.61570 12501 ft 343 kts 107°
2026-04-20 13:40 -6.92390 110.63850 13088 ft 347 kts 111°
2026-04-20 13:40 -6.93299 110.66110 13664 ft 350 kts 112°
2026-04-20 13:41 -6.94242 110.68381 14169 ft 353 kts 112°
2026-04-20 13:41 -6.95182 110.70677 14684 ft 356 kts 111°
2026-04-20 13:41 -6.96101 110.73007 15182 ft 359 kts 111°
2026-04-20 13:41 -6.96981 110.75371 15684 ft 362 kts 107°
2026-04-20 13:42 -6.97487 110.77864 16170 ft 366 kts 95°
2026-04-20 13:42 -6.97628 110.83023 17155 ft 372 kts 91°
2026-04-20 13:42 -6.97696 110.85636 17641 ft 375 kts 91°
2026-04-20 13:43 -6.97771 110.88250 18108 ft 378 kts 91°
2026-04-20 13:43 -6.97850 110.90904 18506 ft 381 kts 91°
2026-04-20 13:43 -6.97929 110.93584 18902 ft 384 kts 91°
2026-04-20 13:43 -6.98009 110.96316 19302 ft 387 kts 91°
2026-04-20 13:44 -6.98087 110.99032 19695 ft 389 kts 91°
2026-04-20 13:44 -6.98162 111.01727 20059 ft 392 kts 91°
2026-04-20 13:44 -6.98238 111.04480 20421 ft 395 kts 91°
2026-04-20 13:44 -6.98314 111.07253 20765 ft 398 kts 91°
2026-04-20 13:45 -6.98391 111.10049 21099 ft 401 kts 91°
2026-04-20 13:45 -6.98468 111.12863 21415 ft 404 kts 91°
2026-04-20 13:45 -6.98547 111.15697 21729 ft 406 kts 91°
2026-04-20 13:45 -6.98624 111.18546 22035 ft 409 kts 91°
2026-04-20 13:46 -6.98923 111.29456 23183 ft 417 kts 91°
2026-04-20 13:47 -6.99003 111.32386 23461 ft 420 kts 91°
2026-04-20 13:47 -6.99080 111.35331 23711 ft 422 kts 91°
2026-04-20 13:47 -6.99159 111.38282 23978 ft 423 kts 91°
2026-04-20 13:47 -6.99429 111.41241 24237 ft 425 kts 100°
2026-04-20 13:48 -7.00202 111.44111 24496 ft 427 kts 110°
2026-04-20 13:48 -7.01345 111.46882 24763 ft 429 kts 112°
2026-04-20 13:48 -7.02511 111.49647 25047 ft 430 kts 112°
2026-04-20 13:48 -7.03667 111.52390 25319 ft 432 kts 112°
2026-04-20 13:49 -7.04854 111.55220 25596 ft 434 kts 112°
2026-04-20 13:49 -7.06012 111.57983 25878 ft 436 kts 112°
2026-04-20 13:49 -7.07193 111.60800 26155 ft 438 kts 112°
2026-04-20 13:49 -7.08375 111.63629 26438 ft 439 kts 112°
2026-04-20 13:50 -7.09559 111.66473 26710 ft 441 kts 112°
2026-04-20 13:50 -7.10745 111.69324 26997 ft 443 kts 112°
2026-04-20 13:50 -7.11939 111.72189 27268 ft 444 kts 112°
2026-04-20 13:50 -7.13138 111.75061 27536 ft 446 kts 112°
2026-04-20 13:51 -7.14342 111.77945 27796 ft 448 kts 112°
2026-04-20 13:51 -7.15554 111.80837 28053 ft 450 kts 112°
2026-04-20 13:51 -7.16776 111.83748 28315 ft 452 kts 112°
2026-04-20 13:51 -7.18002 111.86667 28572 ft 453 kts 112°
2026-04-20 13:52 -7.19230 111.89600 28824 ft 455 kts 111°
2026-04-20 13:52 -7.20457 111.92542 29076 ft 457 kts 111°
2026-04-20 13:52 -7.21688 111.95499 29330 ft 459 kts 111°
2026-04-20 13:52 -7.22927 111.98468 29575 ft 461 kts 111°
2026-04-20 13:53 -7.24170 112.01447 29827 ft 462 kts 111°
2026-04-20 13:53 -7.25419 112.04438 30052 ft 464 kts 111°
2026-04-20 13:53 -7.26672 112.07439 30265 ft 465 kts 111°
2026-04-20 13:53 -7.27927 112.10443 30478 ft 467 kts 111°
2026-04-20 13:54 -7.29188 112.13460 30697 ft 468 kts 111°
2026-04-20 13:54 -7.30450 112.16481 30907 ft 469 kts 111°
2026-04-20 13:54 -7.31715 112.19512 31110 ft 470 kts 111°
2026-04-20 13:54 -7.32982 112.22554 31313 ft 471 kts 111°
2026-04-20 13:55 -7.34247 112.25593 31599 ft 470 kts 111°
2026-04-20 13:55 -7.35508 112.28627 31896 ft 468 kts 111°
2026-04-20 13:55 -7.36766 112.31647 32188 ft 467 kts 111°
2026-04-20 13:55 -7.38020 112.34660 32490 ft 466 kts 111°
2026-04-20 13:56 -7.39269 112.37662 32789 ft 464 kts 111°
2026-04-20 13:56 -7.40512 112.40652 33088 ft 463 kts 111°
2026-04-20 13:56 -7.41761 112.43654 33398 ft 462 kts 111°
2026-04-20 13:56 -7.43001 112.46637 33702 ft 461 kts 111°
2026-04-20 13:57 -7.44220 112.49573 33989 ft 460 kts 111°
2026-04-20 13:57 -7.45457 112.52545 34248 ft 459 kts 111°
2026-04-20 13:57 -7.46695 112.55518 34500 ft 458 kts 111°
2026-04-20 13:57 -7.47930 112.58482 34751 ft 457 kts 111°
2026-04-20 13:58 -7.49160 112.61442 35002 ft 457 kts 111°
2026-04-20 13:58 -7.50386 112.64392 35246 ft 456 kts 111°
2026-04-20 13:58 -7.51616 112.67343 35491 ft 456 kts 111°
2026-04-20 13:58 -7.52823 112.70246 35744 ft 455 kts 111°
2026-04-20 13:59 -7.54041 112.73186 35995 ft 454 kts 111°
2026-04-20 13:59 -7.55257 112.76121 36224 ft 454 kts 111°
2026-04-20 13:59 -7.56475 112.79057 36470 ft 453 kts 111°
2026-04-20 13:59 -7.57688 112.81982 36703 ft 453 kts 111°
2026-04-20 14:00 -7.58906 112.84916 36863 ft 453 kts 111°
2026-04-20 14:00 -7.60117 112.87833 36895 ft 450 kts 111°
2026-04-20 14:00 -7.62521 112.93632 36900 ft 448 kts 111°
2026-04-20 14:01 -7.64919 112.99421 36901 ft 447 kts 111°
2026-04-20 14:01 -7.67314 113.05207 36906 ft 447 kts 111°
2026-04-20 14:02 -7.69711 113.10992 36905 ft 447 kts 111°
2026-04-20 14:02 -7.72106 113.16784 36906 ft 447 kts 111°
2026-04-20 14:03 -7.74506 113.22576 36907 ft 448 kts 111°
2026-04-20 14:03 -7.76903 113.28374 36911 ft 448 kts 111°
2026-04-20 14:04 -7.79300 113.34167 36917 ft 448 kts 111°
2026-04-20 14:04 -7.81680 113.39932 36927 ft 448 kts 111°
2026-04-20 14:05 -7.84077 113.45740 36931 ft 448 kts 111°
2026-04-20 14:05 -7.86478 113.51540 36936 ft 448 kts 111°
2026-04-20 14:06 -7.88878 113.57348 36944 ft 448 kts 111°
2026-04-20 14:06 -7.91269 113.63146 36418 ft 447 kts 111°
2026-04-20 14:07 -7.92454 113.66028 35879 ft 444 kts 111°
2026-04-20 14:07 -7.93632 113.68894 35360 ft 441 kts 111°
2026-04-20 14:07 -7.94808 113.71749 34820 ft 439 kts 111°
2026-04-20 14:07 -7.95978 113.74590 34275 ft 438 kts 111°
2026-04-20 14:08 -7.97147 113.77428 33675 ft 437 kts 111°
2026-04-20 14:08 -7.98312 113.80255 33105 ft 435 kts 111°
2026-04-20 14:08 -7.99541 113.83036 32532 ft 433 kts 117°
2026-04-20 14:08 -8.01231 113.85536 31979 ft 432 kts 130°
2026-04-20 14:09 -8.03406 113.87633 31418 ft 436 kts 142°
2026-04-20 14:09 -8.06031 113.89272 30842 ft 449 kts 154°
2026-04-20 14:09 -8.08975 113.90324 30247 ft 451 kts 167°
2026-04-20 14:09 -8.12076 113.90796 29600 ft 449 kts 173°
2026-04-20 14:10 -8.15165 113.91168 29023 ft 446 kts 173°
2026-04-20 14:10 -8.18199 113.91538 28440 ft 442 kts 173°
2026-04-20 14:10 -8.21252 113.91916 27872 ft 440 kts 173°
2026-04-20 14:10 -8.24285 113.92296 27306 ft 439 kts 173°
2026-04-20 14:11 -8.27304 113.92673 26754 ft 435 kts 173°
2026-04-20 14:11 -8.30297 113.93049 26212 ft 432 kts 173°
2026-04-20 14:11 -8.33268 113.93421 25690 ft 428 kts 173°
2026-04-20 14:11 -8.36210 113.93790 25161 ft 424 kts 173°
2026-04-20 14:12 -8.39121 113.94154 24665 ft 420 kts 173°
2026-04-20 14:12 -8.42009 113.94514 24181 ft 415 kts 173°
2026-04-20 14:12 -8.44835 113.94863 23970 ft 403 kts 173°
2026-04-20 14:12 -8.47612 113.95207 23765 ft 400 kts 173°
2026-04-20 14:13 -8.50390 113.95550 22736 ft 407 kts 173°
2026-04-20 14:13 -8.53195 113.95899 22083 ft 403 kts 172°
2026-04-20 14:13 -8.55922 113.96392 21590 ft 394 kts 162°
2026-04-20 14:13 -8.58403 113.97519 21090 ft 396 kts 147°
2026-04-20 14:14 -8.60537 113.99291 20582 ft 398 kts 132°
2026-04-20 14:14 -8.62127 114.01563 20066 ft 395 kts 117°
2026-04-20 14:14 -8.63124 114.04132 19550 ft 390 kts 108°
2026-04-20 14:14 -8.63981 114.06712 19050 ft 396 kts 108°
2026-04-20 14:15 -8.64863 114.09357 18529 ft 398 kts 108°
2026-04-20 14:15 -8.65743 114.11995 17983 ft 395 kts 108°
2026-04-20 14:15 -8.66618 114.14608 17450 ft 391 kts 108°
2026-04-20 14:15 -8.67489 114.17207 16961 ft 388 kts 108°
2026-04-20 14:16 -8.68352 114.19782 16468 ft 385 kts 109°
2026-04-20 14:16 -8.69206 114.22328 15988 ft 381 kts 109°
2026-04-20 14:16 -8.70054 114.24856 15512 ft 378 kts 109°
2026-04-20 14:16 -8.70892 114.27356 15042 ft 372 kts 109°
2026-04-20 14:17 -8.71716 114.29820 14579 ft 367 kts 109°
2026-04-20 14:17 -8.72526 114.32243 14123 ft 363 kts 109°
2026-04-20 14:17 -8.73338 114.34671 13651 ft 361 kts 109°
2026-04-20 14:17 -8.74119 114.37003 13184 ft 348 kts 109°
2026-04-20 14:18 -8.74882 114.39284 12715 ft 337 kts 109°
2026-04-20 14:18 -8.75618 114.41489 12278 ft 325 kts 109°
2026-04-20 14:18 -8.76326 114.43612 11925 ft 313 kts 109°
2026-04-20 14:18 -8.77010 114.45663 11551 ft 302 kts 109°
2026-04-20 14:19 -8.77673 114.47650 11164 ft 294 kts 109°
2026-04-20 14:19 -8.78320 114.49585 10775 ft 289 kts 109°
2026-04-20 14:19 -8.78960 114.51502 10387 ft 287 kts 109°
2026-04-20 14:19 -8.79594 114.53406 10240 ft 285 kts 109°
2026-04-20 14:20 -8.80226 114.55303 10130 ft 285 kts 109°
2026-04-20 14:20 -8.80860 114.57200 9997 ft 285 kts 109°
2026-04-20 14:20 -8.81489 114.59082 9560 ft 285 kts 109°
2026-04-20 14:20 -8.82120 114.60971 9160 ft 282 kts 109°
2026-04-20 14:21 -8.82744 114.62840 8790 ft 279 kts 109°
2026-04-20 14:21 -8.83363 114.64694 8420 ft 278 kts 109°
2026-04-20 14:21 -8.83966 114.66542 8053 ft 277 kts 106°
2026-04-20 14:21 -8.84210 114.68460 7688 ft 276 kts 90°
2026-04-20 14:22 -8.83913 114.70372 7323 ft 277 kts 74°
2026-04-20 14:22 -8.83205 114.72182 6959 ft 277 kts 69°
2026-04-20 14:22 -8.82464 114.73978 6586 ft 275 kts 69°
2026-04-20 14:22 -8.81733 114.75764 6209 ft 274 kts 69°
2026-04-20 14:23 -8.81008 114.77541 5831 ft 272 kts 69°
2026-04-20 14:23 -8.80287 114.79307 5464 ft 271 kts 69°
2026-04-20 14:23 -8.79571 114.81062 5107 ft 269 kts 69°
2026-04-20 14:23 -8.78857 114.82807 4739 ft 268 kts 69°
2026-04-20 14:24 -8.78146 114.84542 4375 ft 267 kts 69°
2026-04-20 14:24 -8.77436 114.86269 4022 ft 265 kts 69°
2026-04-20 14:24 -8.76730 114.87990 3665 ft 264 kts 69°
2026-04-20 14:24 -8.76030 114.89698 3315 ft 262 kts 69°
2026-04-20 14:25 -8.75522 114.91443 2962 ft 256 kts 84°
2026-04-20 14:25 -8.75485 114.93167 2876 ft 241 kts 91°
2026-04-20 14:25 -8.75502 114.94814 2791 ft 228 kts 91°
2026-04-20 14:25 -8.75512 114.96376 2698 ft 217 kts 91°
2026-04-20 14:26 -8.75517 114.97880 2630 ft 207 kts 91°
2026-04-20 14:26 -8.75520 114.99306 2520 ft 199 kts 91°
2026-04-20 14:26 -8.75494 115.00693 2375 ft 196 kts 89°
2026-04-20 14:26 -8.75440 115.02028 2221 ft 184 kts 88°
2026-04-20 14:27 -8.75384 115.03283 2072 ft 174 kts 89°
2026-04-20 14:27 -8.75333 115.04453 1934 ft 159 kts 89°
2026-04-20 14:27 -8.75287 115.05543 1803 ft 152 kts 88°
2026-04-20 14:27 -8.75242 115.06604 1692 ft 150 kts 89°
2026-04-20 14:28 -8.75200 115.07656 1515 ft 149 kts 90°
2026-04-20 14:28 -8.75159 115.08698 1303 ft 148 kts 89°
2026-04-20 14:28 -8.75118 115.09734 1106 ft 144 kts 89°
2026-04-20 14:28 -8.75092 115.10391 987 ft 140 kts 90°
2026-04-20 14:29 -8.75054 115.11368 816 ft 138 kts 88°
2026-04-20 14:29 -8.75015 115.12332 648 ft 137 kts 86°
2026-04-20 14:29 -8.74976 115.13289 465 ft 137 kts 86°
2026-04-20 14:29 -8.74941 115.14256 296 ft 138 kts 85°
2026-04-20 14:30 -8.74907 115.15221 100 ft 137 kts 85°
2026-04-20 14:30 -8.74865 115.16165 29 ft 122 kts 87°
2026-04-20 14:30 -8.74842 115.16734 27 ft 56 kts 88°
2026-04-20 14:30 -8.74826 115.17123 28 ft 53 kts 88°
2026-04-20 14:31 -8.74793 115.17318 28 ft 14 kts 20°
2026-04-20 14:31 -8.74715 115.17314 31 ft 6 kts 357°
2026-04-20 14:31 -8.74713 115.17314 31 ft 0 kts 357°
2026-04-20 14:32 -8.74709 115.17314 31 ft 3 kts 357°
2026-04-20 14:33 -8.74665 115.17286 30 ft 9 kts 299°
2026-04-20 14:33 -8.74658 115.17230 32 ft 8 kts 269°
2026-04-20 14:33 -8.74660 115.17173 32 ft 8 kts 268°
2026-04-20 14:33 -8.74662 115.17118 32 ft 8 kts 268°
2026-04-20 14:34 -8.74665 115.17063 32 ft 8 kts 267°
2026-04-20 14:34 -8.74668 115.16992 32 ft 15 kts 268°
2026-04-20 14:34 -8.74674 115.16864 32 ft 19 kts 262°
2026-04-20 14:34 -8.74678 115.16733 32 ft 19 kts 267°
2026-04-20 14:35 -8.74685 115.16604 32 ft 18 kts 268°
2026-04-20 14:35 -8.74690 115.16478 33 ft 18 kts 268°
2026-04-20 14:35 -8.74694 115.16352 33 ft 18 kts 268°
2026-04-20 14:35 -8.74699 115.16251 33 ft 14 kts 267°
2026-04-20 14:36 -8.74703 115.16178 33 ft 4 kts 267°
2026-04-20 14:36 -8.74704 115.16151 33 ft 4 kts 268°
2026-04-20 14:36 -8.74696 115.16140 32 ft 1 kts 326°
2026-04-20 14:36 -8.74672 115.16138 33 ft 6 kts 357°
2026-04-20 14:37 -8.74628 115.16137 33 ft 6 kts 358°
2026-04-20 14:37 -8.74627 115.16137 33 ft 0 kts 358°